QPF
0.02 0.02 0.02 0.03 0.03 0.03 0.03 0.03 0.03 0.03 0.03 0.04 0.05 0.05 0.05 0.05 0.06 0.06 0.07 0.08 0.09 0.09 0.08 0.07 0.06 0.05 0.04 0.03 0.02 0.02 0.02 0.02 0.02 0.02 0.01 0.01 0.01 0.01 0.01 0.01 0.00 0.00 0.00
0.01 0.01 0.01 0.01 0.01 0.01 0.01 0.02 0.02 0.02 0.03 0.03 0.04 0.04 0.04 0.04 0.05 0.05 0.04 0.04 0.04 0.04 0.04 0.03 0.03 0.02 0.02 0.02 0.02 0.02 0.02 0.02 0.02 0.01 0.01 0.01 0.00 0.01 0.01 0.01 0.01 0.01 0.01
0.01 0.01 0.01 0.01 0.01 0.01 0.01 0.02 0.03 0.03 0.03 0.02 0.02 0.02 0.03 0.03 0.03 0.03 0.03 0.03 0.03 0.03 0.03 0.03 0.03 0.03 0.03 0.02 0.02 0.02 0.02 0.01 0.02 0.02 0.01 0.01 0.01 0.01 0.01 0.02 0.02 0.03 0.01
0.01 0.01 0.01 0.01 0.01 0.01 0.02 0.02 0.01 0.01 0.01 0.01 0.01 0.01 0.02 0.02 0.02 0.02 0.03 0.03 0.03 0.03 0.03 0.03 0.02 0.02 0.02 0.02 0.02 0.02 0.02 0.01 0.02 0.02 0.02 0.01 0.02 0.02 0.03 0.04 0.03 0.04 0.03
0.01 0.01 0.01 0.01 0.01 0.01 0.01 0.01 0.01 0.00 0.00 0.00 0.00 0.00 0.01 0.01 0.01 0.01 0.01 0.01 0.02 0.02 0.02 0.01 0.01 0.00 0.00 0.00 0.00 0.00 0.01 0.01 0.01 0.02 0.02 0.02 0.03 0.04 0.04 0.04 0.04 0.03 0.02
0.01 0.01 0.01 0.01 0.01 0.01 0.01 0.01 0.01 0.00 0.00 0.00 0.00 0.00 0.00 0.00 0.00 0.00 0.00 0.01 0.01 0.01 0.02 0.01 0.01 0.00 0.00 0.00 0.00 0.00 0.00 0.00 0.01 0.01 0.02 0.03 0.04 0.05 0.06 0.05 0.04 0.03 0.02
0.01 0.01 0.01 0.01 0.01 0.00 0.00 0.01 0.01 0.01 0.01 0.01 0.01 0.01 0.01 0.00 0.00 0.00 0.00 0.00 0.01 0.02 0.02 0.02 0.01 0.01 0.01 0.01 0.01 0.00 0.01 0.01 0.01 0.01 0.02 0.03 0.05 0.06 0.05 0.03 0.03 0.03 0.03
0.01 0.01 0.00 0.00 0.00 0.00 0.01 0.01 0.02 0.02 0.02 0.02 0.01 0.01 0.02 0.00 0.00 0.00 0.00 0.00 0.02 0.03 0.03 0.03 0.03 0.03 0.01 0.00 0.00 0.01 0.04 0.07 0.05 0.03 0.04 0.04 0.04 0.03 0.02 0.02 0.02 0.02 0.04
0.01 0.01 0.00 0.00 0.00 0.01 0.01 0.02 0.02 0.02 0.02 0.01 0.01 0.02 0.03 0.01 0.00 0.00 0.00 0.01 0.02 0.03 0.03 0.02 0.01 0.02 0.00 0.00 0.00 0.02 0.05 0.09 0.05 0.02 0.01 0.01 0.00 0.00 0.00 0.00 0.02 0.05 0.05
0.01 0.01 0.01 0.01 0.01 0.01 0.02 0.02 0.02 0.02 0.02 0.01 0.01 0.02 0.03 0.02 0.00 0.00 0.00 0.00 0.02 0.03 0.05 0.06 0.03 0.00 0.00 0.00 0.00 0.01 0.04 0.05 0.04 0.04 0.05 0.04 0.04 0.04 0.02 0.01 0.03 0.06 0.07
0.01 0.01 0.01 0.01 0.01 0.01 0.02 0.02 0.02 0.02 0.02 0.02 0.02 0.03 0.03 0.01 0.00 0.00 0.00 0.00 0.00 0.01 0.05 0.08 0.06 0.00 0.00 0.00 0.00 0.01 0.01 0.01 0.01 0.05 0.07 0.08 0.08 0.08 0.09 0.08 0.10 0.10 0.09
0.01 0.01 0.01 0.01 0.00 0.01 0.02 0.03 0.02 0.02 0.02 0.03 0.03 0.04 0.04 0.03 0.01 0.00 0.00 0.00 0.00 0.01 0.06 0.06 0.03 0.00 0.00 0.00 0.00 0.00 0.00 0.01 0.04 0.09 0.10 0.09 0.09 0.08 0.08 0.09 0.12 0.14 0.14
0.02 0.02 0.02 0.01 0.00 0.00 0.01 0.03 0.02 0.02 0.01 0.01 0.01 0.03 0.03 0.04 0.03 0.00 0.00 0.00 0.00 0.01 0.03 0.01 0.00 0.00 0.00 0.03 0.02 0.00 0.01 0.05 0.09 0.10 0.11 0.10 0.09 0.07 0.06 0.08 0.09 0.12 0.13
0.02 0.02 0.01 0.01 0.01 0.01 0.01 0.00 0.00 0.00 0.00 0.01 0.02 0.03 0.04 0.04 0.02 0.00 0.00 0.01 0.01 0.01 0.01 0.02 0.02 0.02 0.03 0.04 0.05 0.06 0.07 0.08 0.07 0.10 0.11 0.10 0.09 0.07 0.07 0.08 0.09 0.10 0.11
0.02 0.01 0.01 0.01 0.01 0.01 0.01 0.00 0.00 0.00 0.00 0.00 0.00 0.01 0.01 0.02 0.00 0.00 0.00 0.00 0.00 0.00 0.00 0.04 0.09 0.10 0.10 0.10 0.10 0.09 0.09 0.07 0.07 0.09 0.09 0.08 0.07 0.06 0.06 0.06 0.08 0.10 0.12
0.02 0.01 0.01 0.01 0.01 0.01 0.01 0.01 0.00 0.00 0.00 0.00 0.00 0.00 0.00 0.00 0.00 0.00 0.00 0.00 0.00 0.00 0.01 0.05 0.07 0.07 0.06 0.06 0.05 0.05 0.05 0.05 0.05 0.05 0.05 0.05 0.04 0.04 0.04 0.04 0.06 0.08 0.10
0.01 0.01 0.00 0.00 0.00 0.00 0.01 0.03 0.03 0.01 0.00 0.00 0.00 0.00 0.00 0.00 0.00 0.00 0.00 0.00 0.00 0.00 0.02 0.04 0.04 0.03 0.03 0.04 0.03 0.03 0.02 0.02 0.02 0.02 0.02 0.03 0.02 0.02 0.03 0.04 0.05 0.06 0.08
0.00 0.00 0.00 0.00 0.00 0.00 0.00 0.01 0.02 0.03 0.03 0.02 0.01 0.00 0.00 0.00 0.00 0.00 0.00 0.01 0.02 0.02 0.03 0.02 0.02 0.02 0.02 0.02 0.01 0.01 0.01 0.00 0.01 0.01 0.01 0.01 0.01 0.02 0.03 0.03 0.04 0.04 0.06
0.00 0.00 0.00 0.00 0.00 0.00 0.00 0.00 0.00 0.02 0.03 0.04 0.04 0.02 0.00 0.00 0.00 0.00 0.00 0.02 0.02 0.02 0.01 0.01 0.01 0.01 0.01 0.00 0.01 0.01 0.00 0.00 0.00 0.00 0.00 0.00 0.01 0.01 0.01 0.02 0.03 0.01 0.03
0.00 0.00 0.00 0.00 0.00 0.00 0.00 0.00 0.00 0.01 0.02 0.03 0.02 0.02 0.02 0.03 0.05 0.04 0.03 0.02 0.01 0.01 0.01 0.01 0.01 0.01 0.00 0.00 0.00 0.00 0.00 0.00 0.00 0.00 0.00 0.00 0.00 0.00 0.00 0.01 0.01 0.01 0.03
0.00 0.00 0.00 0.00 0.00 0.00 0.00 0.00 0.01 0.01 0.02 0.02 0.01 0.00 0.00 0.02 0.05 0.04 0.02 0.01 0.01 0.00 0.00 0.00 0.00 0.00 0.00 0.00 0.00 0.00 0.00 0.00 0.00 0.00 0.00 0.00 0.00 0.00 0.00 0.00 0.00 0.00 0.01
0.00 0.00 0.00 0.00 0.00 0.00 0.00 0.00 0.00 0.00 0.02 0.02 0.01 0.01 0.00 0.02 0.04 0.03 0.02 0.01 0.00 0.00 0.00 0.00 0.00 0.00 0.00 0.00 0.00 0.00 0.00 0.00 0.00 0.00 0.00 0.00 0.00 0.00 0.00 0.00 0.00 0.00 0.00
0.00 0.00 0.00 0.00 0.00 0.00 0.00 0.00 0.00 0.00 0.01 0.01 0.01 0.01 0.02 0.03 0.02 0.01 0.01 0.00 0.00 0.00 0.00 0.00 0.00 0.00 0.00 0.00 0.00 0.00 0.00 0.00 0.00 0.00 0.00 0.00 0.00 0.00 0.00 0.00 0.00 0.00 0.00
0.00 0.00 0.00 0.00 0.00 0.00 0.00 0.00 0.00 0.00 0.00 0.01 0.01 0.01 0.01 0.01 0.01 0.00 0.00 0.00 0.00 0.00 0.00 0.00 0.00 0.00 0.00 0.00 0.00 0.00 0.00 0.00 0.00 0.00 0.00 0.00 0.00 0.00 0.00 0.00 0.00 0.00 0.00
0.00 0.00 0.00 0.00 0.00 0.00 0.00 0.00 0.00 0.00 0.00 0.00 0.00 0.01 0.01 0.00 0.00 0.00 0.00 0.00 0.00 0.00 0.00 0.00 0.00 0.00 0.00 0.00 0.00 0.00 0.00 0.00 0.00 0.00 0.00 0.00 0.00 0.00 0.00 0.00 0.00 0.00 0.00
0.00 0.00 0.00 0.00 0.00 0.00 0.00 0.00 0.00 0.00 0.00 0.00 0.00 0.00 0.00 0.00 0.00 0.00 0.00 0.00 0.00 0.00 0.00 0.00 0.00 0.00 0.00 0.00 0.00 0.00 0.00 0.00 0.00 0.00 0.00 0.00 0.00 0.00 0.00 0.00 0.00 0.00 0.00
MSLP
1020.00 1020.30 1020.66 1021.07 1021.49 1021.89 1022.25 1022.54 1022.77 1022.92 1023.03 1023.10 1023.16 1023.21 1023.25 1023.29 1023.32 1023.33 1023.30 1023.25 1023.16 1023.05 1022.92 1022.77 1022.62 1022.45 1022.26 1022.03 1021.77 1021.47 1021.11 1020.73 1020.32 1019.92 1019.54 1019.22 1018.96 1018.77 1018.64 1018.57 1018.54 1018.52 1018.49
1020.76 1020.99 1021.27 1021.59 1021.92 1022.23 1022.51 1022.74 1022.92 1023.05 1023.14 1023.21 1023.27 1023.33 1023.39 1023.45 1023.49 1023.51 1023.50 1023.45 1023.36 1023.24 1023.09 1022.93 1022.76 1022.58 1022.38 1022.17 1021.92 1021.63 1021.29 1020.92 1020.52 1020.11 1019.70 1019.33 1019.00 1018.73 1018.51 1018.34 1018.20 1018.08 1017.97
1021.26 1021.45 1021.67 1021.92 1022.19 1022.45 1022.69 1022.89 1023.07 1023.20 1023.31 1023.40 1023.49 1023.57 1023.65 1023.72 1023.77 1023.79 1023.77 1023.70 1023.59 1023.45 1023.28 1023.10 1022.91 1022.73 1022.54 1022.35 1022.13 1021.88 1021.58 1021.24 1020.86 1020.44 1020.02 1019.60 1019.20 1018.84 1018.53 1018.25 1018.01 1017.79 1017.57
1021.59 1021.75 1021.93 1022.15 1022.38 1022.62 1022.85 1023.06 1023.25 1023.41 1023.56 1023.69 1023.81 1023.92 1024.02 1024.10 1024.15 1024.15 1024.10 1024.01 1023.86 1023.68 1023.48 1023.28 1023.08 1022.90 1022.73 1022.56 1022.38 1022.17 1021.91 1021.61 1021.24 1020.83 1020.39 1019.93 1019.47 1019.03 1018.63 1018.25 1017.91 1017.60 1017.30
1021.84 1021.99 1022.16 1022.35 1022.57 1022.80 1023.03 1023.26 1023.47 1023.67 1023.85 1024.02 1024.18 1024.32 1024.43 1024.52 1024.55 1024.53 1024.46 1024.32 1024.14 1023.93 1023.69 1023.47 1023.25 1023.07 1022.91 1022.76 1022.61 1022.43 1022.21 1021.93 1021.58 1021.17 1020.70 1020.21 1019.70 1019.20 1018.72 1018.27 1017.85 1017.47 1017.11
1022.10 1022.25 1022.41 1022.60 1022.81 1023.03 1023.25 1023.48 1023.71 1023.93 1024.14 1024.33 1024.52 1024.67 1024.80 1024.88 1024.91 1024.87 1024.77 1024.61 1024.40 1024.15 1023.89 1023.64 1023.41 1023.22 1023.06 1022.91 1022.77 1022.61 1022.40 1022.12 1021.78 1021.36 1020.87 1020.35 1019.80 1019.25 1018.72 1018.22 1017.77 1017.34 1016.95
1022.41 1022.57 1022.73 1022.91 1023.10 1023.30 1023.51 1023.72 1023.93 1024.14 1024.35 1024.56 1024.75 1024.91 1025.04 1025.13 1025.15 1025.11 1025.00 1024.83 1024.59 1024.33 1024.05 1023.78 1023.53 1023.32 1023.15 1022.99 1022.84 1022.66 1022.44 1022.15 1021.79 1021.35 1020.84 1020.29 1019.71 1019.14 1018.59 1018.08 1017.61 1017.18 1016.79
1022.79 1022.95 1023.11 1023.27 1023.44 1023.60 1023.77 1023.94 1024.11 1024.29 1024.48 1024.66 1024.85 1025.01 1025.15 1025.24 1025.27 1025.24 1025.14 1024.96 1024.73 1024.46 1024.17 1023.89 1023.62 1023.38 1023.17 1022.98 1022.79 1022.57 1022.32 1022.00 1021.60 1021.13 1020.61 1020.03 1019.44 1018.86 1018.31 1017.81 1017.36 1016.96 1016.61
1023.18 1023.35 1023.51 1023.66 1023.79 1023.90 1024.02 1024.13 1024.25 1024.38 1024.53 1024.68 1024.85 1025.01 1025.15 1025.26 1025.31 1025.30 1025.21 1025.05 1024.83 1024.56 1024.27 1023.96 1023.66 1023.38 1023.13 1022.88 1022.64 1022.37 1022.06 1021.69 1021.25 1020.76 1020.21 1019.62 1019.03 1018.46 1017.93 1017.46 1017.05 1016.69 1016.39
1023.53 1023.73 1023.89 1024.02 1024.12 1024.19 1024.25 1024.31 1024.37 1024.45 1024.56 1024.69 1024.84 1025.00 1025.15 1025.27 1025.34 1025.35 1025.29 1025.15 1024.93 1024.66 1024.35 1024.01 1023.68 1023.35 1023.03 1022.72 1022.40 1022.07 1021.70 1021.28 1020.80 1020.28 1019.71 1019.12 1018.54 1017.99 1017.49 1017.05 1016.68 1016.38 1016.13
1023.82 1024.03 1024.20 1024.32 1024.40 1024.45 1024.47 1024.49 1024.51 1024.56 1024.64 1024.75 1024.90 1025.06 1025.22 1025.36 1025.45 1025.48 1025.42 1025.29 1025.06 1024.77 1024.43 1024.05 1023.66 1023.27 1022.88 1022.49 1022.11 1021.71 1021.28 1020.81 1020.30 1019.75 1019.17 1018.59 1018.02 1017.49 1017.03 1016.63 1016.31 1016.05 1015.85
1023.99 1024.23 1024.41 1024.54 1024.62 1024.66 1024.67 1024.68 1024.69 1024.73 1024.81 1024.93 1025.08 1025.25 1025.43 1025.57 1025.67 1025.69 1025.63 1025.47 1025.22 1024.89 1024.50 1024.06 1023.60 1023.13 1022.67 1022.22 1021.77 1021.31 1020.83 1020.33 1019.79 1019.23 1018.66 1018.08 1017.53 1017.03 1016.59 1016.23 1015.94 1015.72 1015.55
1024.06 1024.31 1024.52 1024.67 1024.76 1024.82 1024.85 1024.88 1024.91 1024.98 1025.09 1025.23 1025.40 1025.59 1025.77 1025.91 1025.99 1025.99 1025.89 1025.69 1025.38 1024.98 1024.51 1024.00 1023.47 1022.93 1022.40 1021.89 1021.38 1020.89 1020.38 1019.85 1019.31 1018.76 1018.19 1017.63 1017.10 1016.62 1016.20 1015.86 1015.60 1015.40 1015.26
1024.04 1024.30 1024.52 1024.69 1024.82 1024.91 1024.98 1025.06 1025.15 1025.26 1025.41 1025.60 1025.80 1026.00 1026.18 1026.30 1026.35 1026.30 1026.13 1025.85 1025.46 1024.99 1024.44 1023.85 1023.25 1022.65 1022.07 1021.52 1020.98 1020.46 1019.95 1019.43 1018.89 1018.35 1017.80 1017.26 1016.75 1016.29 1015.88 1015.55 1015.30 1015.11 1014.99
1023.95 1024.21 1024.43 1024.62 1024.78 1024.92 1025.05 1025.18 1025.33 1025.51 1025.72 1025.95 1026.18 1026.39 1026.55 1026.64 1026.63 1026.51 1026.27 1025.90 1025.43 1024.87 1024.25 1023.60 1022.94 1022.31 1021.70 1021.13 1020.60 1020.09 1019.58 1019.08 1018.57 1018.05 1017.52 1017.00 1016.50 1016.04 1015.64 1015.31 1015.06 1014.88 1014.77
1023.83 1024.06 1024.28 1024.48 1024.66 1024.83 1025.01 1025.21 1025.42 1025.66 1025.92 1026.19 1026.43 1026.64 1026.77 1026.82 1026.75 1026.55 1026.23 1025.78 1025.23 1024.61 1023.94 1023.25 1022.58 1021.94 1021.35 1020.80 1020.29 1019.81 1019.34 1018.87 1018.39 1017.89 1017.37 1016.86 1016.37 1015.91 1015.50 1015.17 1014.91 1014.73 1014.61
1023.69 1023.89 1024.08 1024.27 1024.46 1024.66 1024.88 1025.12 1025.38 1025.67 1025.96 1026.25 1026.50 1026.69 1026.79 1026.78 1026.65 1026.39 1026.00 1025.49 1024.90 1024.25 1023.57 1022.89 1022.24 1021.64 1021.09 1020.59 1020.14 1019.71 1019.28 1018.85 1018.39 1017.91 1017.40 1016.89 1016.38 1015.91 1015.49 1015.14 1014.86 1014.67 1014.54
1023.56 1023.71 1023.87 1024.03 1024.22 1024.43 1024.66 1024.93 1025.23 1025.54 1025.85 1026.13 1026.37 1026.53 1026.60 1026.54 1026.36 1026.05 1025.62 1025.10 1024.50 1023.86 1023.21 1022.59 1022.01 1021.48 1021.01 1020.59 1020.21 1019.84 1019.46 1019.05 1018.61 1018.13 1017.62 1017.09 1016.56 1016.06 1015.61 1015.23 1014.93 1014.71 1014.57
1023.43 1023.54 1023.66 1023.80 1023.97 1024.17 1024.42 1024.69 1025.00 1025.31 1025.62 1025.89 1026.11 1026.24 1026.26 1026.17 1025.96 1025.63 1025.20 1024.68 1024.12 1023.54 1022.97 1022.44 1021.96 1021.54 1021.17 1020.85 1020.54 1020.22 1019.88 1019.50 1019.06 1018.57 1018.02 1017.46 1016.89 1016.34 1015.85 1015.43 1015.09 1014.84 1014.67
1023.32 1023.39 1023.48 1023.59 1023.75 1023.95 1024.19 1024.46 1024.76 1025.06 1025.35 1025.60 1025.79 1025.89 1025.88 1025.77 1025.55 1025.22 1024.82 1024.36 1023.87 1023.38 1022.93 1022.51 1022.16 1021.85 1021.59 1021.36 1021.12 1020.85 1020.53 1020.15 1019.69 1019.16 1018.58 1017.96 1017.33 1016.74 1016.19 1015.72 1015.34 1015.05 1014.84
1023.22 1023.26 1023.34 1023.44 1023.59 1023.79 1024.02 1024.29 1024.58 1024.87 1025.14 1025.36 1025.52 1025.59 1025.56 1025.44 1025.22 1024.93 1024.58 1024.19 1023.80 1023.43 1023.10 1022.81 1022.58 1022.40 1022.23 1022.07 1021.88 1021.64 1021.33 1020.93 1020.43 1019.85 1019.21 1018.53 1017.85 1017.19 1016.59 1016.06 1015.63 1015.29 1015.04
1023.14 1023.17 1023.24 1023.36 1023.51 1023.71 1023.95 1024.22 1024.50 1024.78 1025.02 1025.22 1025.35 1025.40 1025.37 1025.25 1025.05 1024.80 1024.51 1024.21 1023.93 1023.67 1023.46 1023.30 1023.18 1023.09 1023.00 1022.89 1022.74 1022.50 1022.17 1021.73 1021.19 1020.55 1019.85 1019.10 1018.36 1017.64 1016.99 1016.41 1015.93 1015.55 1015.25
1023.07 1023.11 1023.20 1023.33 1023.50 1023.72 1023.97 1024.25 1024.53 1024.79 1025.02 1025.20 1025.31 1025.35 1025.31 1025.20 1025.04 1024.83 1024.61 1024.39 1024.20 1024.05 1023.94 1023.88 1023.84 1023.82 1023.79 1023.70 1023.55 1023.30 1022.93 1022.45 1021.86 1021.17 1020.41 1019.61 1018.81 1018.05 1017.35 1016.74 1016.22 1015.80 1015.46
1023.01 1023.07 1023.18 1023.33 1023.54 1023.78 1024.05 1024.34 1024.62 1024.88 1025.09 1025.26 1025.36 1025.39 1025.35 1025.26 1025.12 1024.96 1024.80 1024.65 1024.54 1024.47 1024.44 1024.45 1024.47 1024.49 1024.47 1024.39 1024.23 1023.95 1023.55 1023.02 1022.38 1021.65 1020.85 1020.01 1019.19 1018.40 1017.67 1017.04 1016.49 1016.04 1015.67
1022.95 1023.04 1023.17 1023.35 1023.58 1023.85 1024.14 1024.44 1024.72 1024.97 1025.18 1025.34 1025.43 1025.45 1025.42 1025.34 1025.23 1025.12 1025.01 1024.92 1024.87 1024.85 1024.88 1024.93 1024.98 1025.01 1025.00 1024.91 1024.72 1024.42 1023.98 1023.42 1022.75 1022.00 1021.17 1020.33 1019.49 1018.70 1017.97 1017.32 1016.77 1016.30 1015.92
1022.89 1023.00 1023.15 1023.36 1023.61 1023.89 1024.20 1024.50 1024.78 1025.03 1025.23 1025.37 1025.46 1025.48 1025.46 1025.40 1025.32 1025.24 1025.17 1025.13 1025.12 1025.15 1025.21 1025.29 1025.36 1025.39 1025.37 1025.27 1025.06 1024.73 1024.27 1023.70 1023.02 1022.26 1021.44 1020.60 1019.77 1018.99 1018.27 1017.63 1017.08 1016.61 1016.22
Thickness
5631 5629 5627 5624 5620 5616 5612 5607 5604 5601 5598 5595 5592 5589 5587 5585 5583 5581 5578 5575 5572 5569 5566 5564 5561 5558 5554 5552 5549 5546 5543 5539 5534 5533 5530 5528 5524 5521 5519 5515 5512 5509 5506
5616 5615 5612 5609 5605 5601 5597 5594 5590 5587 5585 5582 5579 5576 5574 5571 5569 5567 5565 5562 5559 5555 5552 5549 5546 5544 5540 5536 5532 5529 5525 5522 5518 5515 5513 5511 5509 5507 5505 5502 5500 5498 5495
5603 5601 5597 5594 5590 5587 5583 5580 5577 5574 5572 5569 5567 5564 5561 5558 5555 5553 5551 5547 5544 5541 5537 5534 5531 5527 5522 5518 5514 5512 5508 5506 5502 5500 5499 5498 5497 5495 5494 5492 5489 5487 5484
5590 5587 5584 5580 5577 5574 5571 5568 5565 5562 5560 5557 5554 5551 5547 5543 5539 5537 5535 5534 5530 5526 5523 5520 5516 5512 5506 5501 5499 5495 5492 5489 5488 5487 5487 5487 5486 5484 5482 5480 5479 5478 5476
5578 5574 5571 5568 5565 5561 5559 5556 5553 5551 5548 5545 5542 5539 5535 5529 5523 5520 5518 5519 5516 5513 5509 5506 5502 5497 5491 5486 5483 5479 5477 5474 5473 5474 5474 5475 5474 5472 5471 5470 5469 5470 5470
5565 5562 5559 5556 5553 5550 5547 5544 5541 5539 5536 5533 5530 5526 5521 5515 5508 5506 5503 5502 5501 5499 5496 5492 5489 5485 5480 5475 5472 5469 5466 5464 5463 5462 5462 5463 5463 5463 5463 5462 5462 5461 5462
5554 5551 5549 5546 5543 5540 5537 5533 5530 5527 5524 5521 5518 5514 5507 5501 5497 5494 5491 5489 5489 5488 5485 5481 5478 5475 5469 5465 5463 5462 5461 5460 5457 5455 5455 5456 5457 5458 5457 5457 5456 5455 5455
5544 5541 5538 5535 5532 5529 5526 5522 5519 5517 5514 5511 5507 5503 5497 5490 5486 5483 5481 5481 5481 5478 5475 5472 5468 5464 5459 5455 5455 5456 5457 5458 5457 5457 5456 5456 5457 5457 5455 5453 5452 5454 5456
5534 5531 5528 5525 5522 5519 5515 5512 5510 5507 5505 5502 5498 5494 5488 5481 5477 5474 5471 5472 5472 5469 5467 5464 5461 5458 5452 5450 5451 5453 5454 5456 5458 5457 5458 5458 5458 5458 5456 5452 5453 5453 5454
5525 5522 5519 5516 5512 5509 5506 5504 5502 5499 5497 5495 5490 5486 5481 5475 5469 5466 5463 5464 5463 5461 5460 5459 5456 5453 5451 5449 5449 5450 5452 5455 5456 5457 5459 5461 5462 5462 5460 5456 5454 5452 5452
5517 5513 5510 5507 5504 5501 5498 5495 5493 5492 5490 5487 5484 5480 5475 5469 5464 5460 5457 5456 5454 5454 5455 5455 5455 5452 5452 5451 5450 5451 5453 5453 5454 5458 5461 5462 5464 5464 5464 5462 5459 5455 5452
5508 5504 5501 5499 5497 5494 5490 5488 5487 5486 5484 5482 5478 5474 5470 5465 5460 5457 5454 5452 5450 5450 5452 5454 5454 5454 5454 5454 5455 5456 5456 5455 5457 5459 5461 5463 5464 5465 5465 5465 5463 5460 5457
5499 5496 5493 5490 5488 5486 5484 5482 5481 5480 5479 5477 5474 5469 5466 5462 5458 5454 5453 5452 5452 5451 5452 5453 5455 5457 5457 5459 5460 5459 5459 5459 5460 5460 5462 5463 5465 5466 5467 5466 5465 5462 5460
5492 5489 5486 5484 5481 5479 5477 5476 5475 5472 5470 5470 5467 5464 5461 5458 5453 5451 5450 5451 5451 5452 5451 5453 5456 5458 5459 5459 5460 5462 5462 5462 5462 5462 5463 5464 5466 5467 5467 5466 5464 5462 5459
5487 5484 5482 5480 5477 5474 5471 5466 5465 5460 5459 5459 5458 5456 5454 5453 5447 5444 5443 5446 5446 5446 5446 5451 5456 5458 5460 5461 5462 5463 5463 5464 5464 5464 5464 5465 5466 5466 5466 5466 5463 5461 5458
5482 5480 5479 5477 5474 5472 5468 5463 5457 5455 5452 5451 5449 5447 5448 5445 5445 5445 5445 5446 5447 5447 5447 5453 5456 5458 5459 5460 5461 5462 5463 5463 5464 5465 5464 5464 5464 5464 5464 5464 5463 5460 5457
5479 5477 5476 5475 5474 5472 5469 5465 5458 5452 5449 5448 5447 5446 5445 5444 5445 5445 5446 5447 5450 5450 5451 5455 5457 5457 5458 5459 5460 5460 5461 5462 5462 5463 5463 5463 5463 5463 5463 5462 5462 5460 5458
5476 5474 5473 5473 5472 5471 5468 5466 5463 5459 5454 5451 5447 5446 5445 5445 5445 5445 5446 5446 5453 5455 5455 5455 5455 5456 5457 5457 5458 5458 5459 5460 5460 5460 5460 5460 5461 5461 5461 5461 5461 5459 5458
5473 5472 5471 5471 5470 5468 5466 5465 5463 5459 5457 5454 5451 5448 5446 5446 5446 5446 5446 5448 5452 5452 5453 5453 5454 5454 5454 5455 5455 5456 5456 5456 5456 5456 5456 5457 5458 5459 5460 5460 5460 5459 5458
5469 5466 5466 5468 5468 5467 5465 5463 5461 5458 5456 5454 5452 5450 5448 5448 5449 5449 5449 5450 5450 5450 5450 5450 5451 5452 5452 5452 5452 5452 5452 5451 5451 5451 5452 5453 5455 5457 5458 5459 5459 5459 5458
5471 5468 5464 5465 5466 5465 5463 5461 5459 5456 5454 5453 5451 5447 5444 5447 5448 5449 5449 5448 5448 5448 5447 5447 5449 5449 5448 5447 5447 5447 5446 5444 5443 5443 5445 5448 5452 5455 5456 5457 5458 5458 5457
5474 5472 5470 5468 5465 5463 5461 5460 5457 5455 5453 5451 5450 5449 5446 5447 5448 5448 5448 5447 5447 5446 5445 5445 5445 5444 5443 5441 5441 5440 5438 5437 5436 5437 5439 5444 5448 5452 5454 5456 5456 5457 5456
5475 5474 5471 5467 5465 5458 5460 5458 5456 5454 5452 5451 5450 5449 5449 5448 5449 5448 5447 5446 5445 5444 5444 5443 5442 5440 5439 5437 5436 5434 5431 5429 5429 5431 5435 5440 5445 5450 5453 5454 5456 5456 5456
5478 5476 5472 5468 5465 5463 5460 5458 5456 5454 5452 5451 5450 5450 5450 5449 5449 5448 5447 5446 5445 5444 5443 5442 5440 5437 5435 5434 5432 5431 5428 5428 5429 5432 5435 5438 5445 5449 5451 5453 5455 5457 5456
5481 5477 5474 5470 5467 5464 5461 5459 5457 5455 5454 5453 5452 5452 5452 5451 5450 5448 5446 5446 5445 5443 5442 5441 5439 5435 5433 5432 5430 5430 5430 5432 5433 5435 5438 5441 5446 5449 5450 5453 5455 5457 5457
5485 5480 5476 5472 5469 5466 5464 5461 5459 5457 5456 5455 5454 5454 5453 5452 5450 5448 5447 5446 5445 5444 5442 5440 5438 5434 5432 5431 5430 5431 5433 5436 5438 5441 5442 5445 5448 5449 5450 5452 5454 5456 5458